Weather History for EGQL - December, 2011

Change the Weather History Date:

Saturday, December 10, 2011

  Actual Average Record
Temperature  
Mean Temperature 36 °F -  
Max Temperature 41 °F 42 °F 54 °F (2013)
Min Temperature 32 °F 34 °F 24 °F (1999)
Degree Days  
Heating Degree Days 28    
Moisture  
Dew Point 31 °F    
Average Humidity 87    
Maximum Humidity 93    
Minimum Humidity 77    
Precipitation  
Precipitation 0.02 in - - ()
Sea Level Pressure  
Sea Level Pressure 29.71 in    
Wind  
Wind Speed 7 mph ()    
Max Wind Speed 17 mph    
Max Gust Speed -    
Visibility 7.1 miles    
Events Rain    
Averages and records for this station are not official NWS values.
T = Trace of Precipitation, MM = Missing Value Source: Averaged Metar Reports

Daily Weather History Graph

Daily Weather History Graph

Search for Another Location

Airport or City:

Trip Planner

Search our weather history database for the weather conditions in past years. The results will help you decide how hot, cold, wet, or windy it might be!

Date:

Astronomy

Dec. 10, 2011 Rise Set
Actual Time 8:33 AM GMT 3:34 PM GMT
Civil Twilight 7:45 AM GMT 4:22 PM GMT
Nautical Twilight 6:56 AM GMT 5:11 PM GMT
Astronomical Twilight 6:10 AM GMT 5:57 PM GMT
Moon 3:31 PM GMT (12/10) 8:25 AM GMT (12/10)
Length of Visible Light 8h 36m
Length of Day
7h 01m
Full, 100% of the Moon is Illuminated
Dec 10
Full
Dec 10
Full
Dec 18
Last Quarter
Dec 24
New
Jan 1
First Quarter

Hourly Weather History & Observations

Time (GMT) Temp. Windchill Dew Point Humidity Pressure Visibility Wind Dir Wind Speed Gust Speed Precip Events Conditions
12:50 AM 32.0 °F 24.2 °F 26.6 °F 80% 29.74 in - West 9.2 mph - N/A   Clear
1:50 AM 32.0 °F 23.0 °F 26.6 °F 80% 29.74 in - West 11.5 mph - N/A   Clear
2:50 AM 32 °F - 28 °F 79% 29.76 in 31 mi WSW 10.4 mph - -   Mostly Cloudy
2:50 AM 32.0 °F 23.6 °F 28.4 °F 87% 29.74 in - WSW 10.4 mph - N/A   Clear
3:50 AM 32.0 °F 26.4 °F 28.4 °F 87% 29.74 in - West 5.8 mph - N/A   Clear
4:50 AM 32.0 °F 24.2 °F 28.4 °F 87% 29.74 in 6.2 mi WSW 9.2 mph - N/A   Overcast
5:50 AM 33 °F - 30 °F 82% 29.73 in 31 mi West 5.8 mph - -   Overcast
5:50 AM 33.8 °F 28.6 °F 30.2 °F 87% 29.71 in - West 5.8 mph - N/A   Clear
6:50 AM 32.0 °F 24.8 °F 30.2 °F 93% 29.71 in - WSW 8.1 mph - N/A   Clear
7:50 AM 33.8 °F 28.6 °F 30.2 °F 87% 29.74 in 6.2 mi West 5.8 mph - N/A   Mostly Cloudy
8:50 AM 32 °F - 30 °F 89% 29.75 in 31 mi West 2.3 mph - -   Partly Cloudy
8:50 AM 32.0 °F - 30.2 °F 93% 29.74 in 6.2 mi West 2.3 mph - N/A   Mostly Cloudy
9:50 AM 32.0 °F 25.6 °F 30.2 °F 93% 29.74 in 6.2 mi WSW 6.9 mph - N/A   Mostly Cloudy
10:50 AM 33.8 °F 25.8 °F 30.2 °F 87% 29.74 in 6.2 mi West 10.4 mph - N/A   Mostly Cloudy
11:50 AM 36 °F - 31 °F 77% 29.76 in 31 mi West 8.1 mph - -   Scattered Clouds
11:50 AM 35.6 °F 29.2 °F 32.0 °F 87% 29.74 in 6.2 mi West 8.1 mph - N/A   Mostly Cloudy
12:50 PM 35.6 °F 28.0 °F 30.2 °F 81% 29.74 in 6.2 mi West 10.4 mph - N/A   Mostly Cloudy
1:50 PM 33.8 °F 25.3 °F 30.2 °F 87% 29.74 in 6.2 mi WSW 11.5 mph - N/A   Mostly Cloudy
2:50 PM 34 °F - 30 °F 80% 29.75 in 22 mi West 6.9 mph - -   Scattered Clouds
2:50 PM 33.8 °F 27.7 °F 30.2 °F 87% 29.74 in 6.2 mi West 6.9 mph - N/A   Mostly Cloudy
3:50 PM 33.8 °F 28.6 °F 30.2 °F 87% 29.71 in 6.2 mi WNW 5.8 mph - N/A   Mostly Cloudy
5:50 PM 34 °F - 31 °F 86% 29.73 in 16 mi West 5.8 mph - -   Scattered Clouds
5:50 PM 33.8 °F 28.6 °F 32.0 °F 93% 29.71 in 6.2 mi West 5.8 mph - N/A   Mostly Cloudy
6:50 PM 33.8 °F 28.6 °F 32.0 °F 93% 29.71 in 6.2 mi West 5.8 mph - N/A Rain Light Rain
7:50 PM 37.4 °F 32.1 °F 35.6 °F 93% 29.68 in 6.2 mi WSW 6.9 mph - N/A   Overcast
8:50 PM 39 °F - 36 °F 85% 29.66 in 10 mi SW 6.9 mph - -   Partly Cloudy
8:50 PM 39.2 °F 34.2 °F 35.6 °F 87% 29.65 in 6.2 mi SW 6.9 mph - N/A   Overcast
9:50 PM 39.2 °F 35.9 °F 35.6 °F 87% 29.62 in 6.2 mi West 4.6 mph - N/A   Mostly Cloudy
10:50 PM 39.2 °F 34.2 °F 35.6 °F 87% 29.59 in 6.2 mi SW 6.9 mph - N/A Rain Light Rain
11:50 PM 41 °F - 39 °F 90% 29.57 in 11 mi SW 17.3 mph - - Rain Light Rain
11:50 PM 41.0 °F 32.5 °F 39.2 °F 93% 29.56 in 6.2 mi SW 17.3 mph - N/A Rain Light Rain